User: anonymous   Login
Location: Habighorst
(52.7089°N, 10.2278°E)
Time: 11:14:22
(UTC+00:00)
Language:

Cosmos 2227 Rocket - Orbit

View from above orbital plane
View from above orbital plane
View from above satellite
View from above satellite

Ground track
Ground track

The orbit is defined by the following mean orbital elements,

1 22285U          26064.92331187 +.00000000 +00000-0 -75538-4 0 00007
2 22285  71.0239  12.1715 0006354 297.6678  62.3799 14.15449013    01
Epoch (UTC): 05 March 2026 22:09:34
Eccentricity: 0.0006354
inclination: 71.0239°
perigee height: 836 km
apogee height: 845 km
right ascension of ascending node: 12.1715°
argument of perigee: 297.6678°
revolutions per day: 14.15449013
mean anomaly at epoch: 62.3799°

The dashed part of the orbit path shows where the satellite is in the earth's shadow,  

DLR